This is the latest recevied weather packets stored in our database for station/object OE-11272. If no packets are shown the sender has not sent any weather packets the latest 10 day(s).
| Time | Temp. | Humidity | Pressure | Rain* | Wind** | Luminosity | Snow |
|---|---|---|---|---|---|---|---|
| 1787969125 | 16.67° C | 80% | 1014.7 hPa | 0 mm | - | 0 W/m² | - |
| 1787968526 | 17.22° C | 77% | 1014.9 hPa | 0 mm | - | 0 W/m² | - |
| 1787967698 | 18.33° C | 100% | 1013.8 hPa | 0 mm | - | 0 W/m² | - |
| 1787967326 | 18.33° C | 99% | 1012.2 hPa | 0 mm | - | 0 W/m² | - |
| 1787966726 | 18.33° C | 99% | 1012.4 hPa | 0 mm | - | 0 W/m² | - |
| 1787965899 | 18.33° C | 99% | 1012.4 hPa | 0 mm | - | 0 W/m² | - |
| 1787964926 | 18.89° C | 98% | 1012.5 hPa | 0 mm | - | 0 W/m² | - |
| 1787964099 | 18.89° C | 98% | 1012.5 hPa | 0 mm | - | 0 W/m² | - |
| 1787963726 | 19.44° C | 97% | 1012.2 hPa | 0.76 mm | - | 0 W/m² | - |
| 1787963125 | 19.44° C | 97% | 1012.1 hPa | 0.76 mm | - | 0 W/m² | - |
| 1787962298 | 19.44° C | 97% | 1012.3 hPa | 0.76 mm | - | 0 W/m² | - |
| 1787961925 | 19.44° C | 96% | 1012.1 hPa | 0.76 mm | - | 0 W/m² | - |
| 1787961326 | 19.44° C | 97% | 1012.1 hPa | 0.76 mm | - | 0 W/m² | - |
| 1787960498 | 20.56° C | 91% | 1012.1 hPa | 0.76 mm | - | 0 W/m² | - |
| 1787960126 | 20.56° C | 92% | 1012.2 hPa | 0.76 mm | - | 0 W/m² | - |
| 1787959525 | 20.56° C | 92% | 1012.2 hPa | 0 mm | - | 0 W/m² | - |
| 1787958926 | 20.56° C | 92% | 1012.1 hPa | 1.27 mm | - | 0 W/m² | - |
| 1787958326 | 20.56° C | 90% | 1012.4 hPa | 1.27 mm | - | 0 W/m² | - |
| 1787957726 | 21.11° C | 89% | 1012.2 hPa | 1.27 mm | - | 0 W/m² | - |
| 1787956899 | 21.11° C | 88% | 1012 hPa | 1.27 mm | - | 0 W/m² | - |
| 1787956526 | 22.22° C | 78% | 1012 hPa | 1.27 mm | - | 0 W/m² | - |
| 1787955926 | 23.33° C | 72% | 1011.4 hPa | 1.27 mm | - | 0 W/m² | - |
| 1787955099 | 23.33° C | 70% | 1011.4 hPa | 1.27 mm | - | 0 W/m² | - |
| 1787954725 | 25.56° C | 56% | 1010.8 hPa | 0 mm | - | 0 W/m² | - |
| 1787954126 | 25.56° C | 51% | 1010.4 hPa | 0 mm | - | 0 W/m² | - |
* Rain latest hour (hover to see other rain measurements)
** Current wind speed in m/s (hover to see current wind gust speed)